IRIDIUM 33 DEB

Satellite information

Favourite Embed

Satellite Type and Status

DEBRISIN ORBIT

Key statistics

Satellite IRIDIUM 33 DEB at a glance.

Uptime

10265

Days in orbit

Revolutions

≈ 14.5

Per day

Orbit

LEO

Low Earth Orbit

Inclination

86.3

Latest

Satellite identification and parameters

Extended collection of information and parameters for IRIDIUM 33 DEB.

Object identification

Identified? True

Debris? True

Object name: IRIDIUM 33 DEB

International designator: 1997-051ZR

Object number (NORAD): 38241

Object ID (CCSDS): 38241

Country: UNITED STATES OF AMERICA (US)

Current information (Y/N): Y

RCS size: SMALL

Orbital parameters

Period: 99.01 minutes

Inclination: 86.3278 deg

SMA: 7089.463 km

Apoapsis: 713.184 km

Periapsis: 709.471 km

RAAN: 13.6255 deg

Eccentricy: 0.00026191

Argument of periapsis: 196.0792 deg

Mean anomaly: 164.0332 deg

Mean motion: 14.54396372 rev/day

Mean motion (dot): 0.00005123 rev/day2

B* drag term: 0.0012007663 1/REarth

Two-line elements (TLE)

Creation date: Oct. 21, 2025, 6:24 p.m.

Reference frame: TEME

Reference center: EARTH

Epoch: Oct. 21, 2025, 11:56 a.m. UTC

TLE line 0: 0 IRIDIUM 33 DEB

TLE line 1: 1 38241U 97051ZR 25294.49758330 .00005123 00000-0 12008-2 0 9995

TLE line 2: 2 38241 86.3278 13.6255 0002619 196.0792 164.0332 14.54396372594414

Live tracking on map

Real-time ground track for satellite IRIDIUM 33 DEB.

In-orbit conjunctions

A list of the most updated potential collisions computed for object IRIDIUM 33 DEB.

Target Orbit TCA Probability of collision Miss distance Type
CZ-6A DEB LEO 2025-01-17 22:15:38 0.0001359116 578.0 (m) DEBRIS
CZ-6A DEB LEO 2024-12-07 16:46:08 0.0001149806 179.0 (m) DEBRIS
CZ-6A DEB LEO 2024-12-07 15:52:42 0.0001100821 851.0 (m) DEBRIS
CZ-6A DEB LEO 2024-11-27 16:41:16 0.0001907442 205.0 (m) DEBRIS
IRIDIUM 73 LEO 2024-10-31 07:08:37 0.0001913956 822.0 (m) PAYLOAD

Associated space launch

Iridium provides global mobile telecommunications services using a constellation of 66 low earth orbit satellites in a 86.4° inclined orbit. Although 77 satellites were originally envisioned for the system and spawned the name based on the 77th element in the periodic table, the system has been scaled back. Motorola's Satellite Communications Group designed and manufactured the Iridium satellites with Lockheed Martin providing the LM-700A spacecraft buses.

IRIDIUM 33 DEB was lifted into orbit during the mission ‘Proton-K/17S40 | Iridium 27 to 33’, on board a Proton-K/17S40 space rocket.

The launch took place on Sept. 14, 1997, 1:36 a.m. from 81/23 (81L).

For more information about the launch, click the button.

Launch to space Proton-K/17S40 | Iridium 27 to 33
Proton-K/17S40 | Iridium 27 to 33

Agency: N/A

Status: Launch Successful

Launch date: Sept. 14, 1997, 1:36 a.m. UTC

Rocket: Proton-K/17S40

Launch pad: 81/23 (81L)

Location: Baikonur Cosmodrome, Republic of Kazakhstan

...

Latest news about this satellite

There are no fresh news available about this satellite. Check back as we update our databases every day.


Newsletter sign-up

Weekly statistics, charts and insights to help you stay on top of the space industry.